User: anonymous   Login
Location: Guayaquil
(2.1667°S, 79.9000°W)
Time: 06:58:38
(UTC-05:00)
Language:

NEE 01 PEGASUS - Orbit

View from above orbital plane
View from above orbital plane
View from above satellite
View from above satellite

Ground track
Ground track

The orbit data is extracted from the following two-line orbital elements,

1 39151U 13018B   18263.49950055 +.00000108 +00000-0 +21296-4 0  9992
2 39151 097.9758 356.8989 0017068 005.0504 355.0877 14.79940457291614
Epoch (UTC): 20 September 2018 11:59:16
Eccentricity: 0.0017068
inclination: 97.9758°
perigee height: 617 km
apogee height: 641 km
right ascension of ascending node: 356.8989°
argument of perigee: 5.0504°
revolutions per day: 14.79940457
mean anomaly at epoch: 355.0877°
orbit number at epoch: 29161

The dashed part of the orbit path shows where the satellite is in the earth's shadow,  

DLR